Regional Weather Roundup
Issued by NWS Charleston, SC

Home | Current Version | Previous Version | Text Only | Print | Product List | Glossary On
Versions: 1 2 3 4 5 6 7 8 9 10 11 12 13 14 15 16 17 18 19 20 21 22 23 24 25 26 27 28 29 30 31 32 33 34 35 36 37 38 39 40 41 42 43 44 45 46 47 48 49 50
000
ASUS42 KCHS 211825
RWRCHS

REGIONAL WEATHER ROUNDUP
NATIONAL WEATHER SERVICE CHARLESTON SC
200 PM EDT TUE OCT 21 2014

NOTE: "FAIR" INDICATES FEW OR NO CLOUDS BELOW 12,000 FEET WITH NO
SIGNIFICANT WEATHER AND/OR OBSTRUCTIONS TO VISIBILITY.

NOT ALL STATIONS ARE QUALITY CONTROLLED BY THE NATIONAL
WEATHER SERVICE. USE DATA WITH CAUTION...ESPECIALLY
DEWPOINT OBSERVATIONS.

SCZ027-030-031-034>040-042>050-211900-
...SOUTH CAROLINA...

CITY           SKY/WX    TMP DP  RH WIND       PRES   REMARKS
N CHARLESTON   SUNNY     79  52  38 W9        29.91F
6HR MIN TEMP:  61; 6HR MAX TEMP:  79;

WATERFRONT PRK   N/A     75 N/A N/A SW6         N/A
FORT JOHNSON   NOT AVBL
JOHNS ISLAND   CLEAR     79  57  47 W7        29.90F
PINOPOLIS      NOT AVBL
MONCKS CORNER  FAIR      77  59  53 SW3       29.89F
SUMMERVILLE    FAIR      77  54  44 SW10      29.90F
BEAUFORT MCAS  SUNNY     78  54  43 W12       29.92F
6HR MIN TEMP:  61; 6HR MAX TEMP:  78;

BEAUFORT ARPT  FAIR      77  57  50 W9        29.91F
HILTON HEAD IS SUNNY     77  55  47 W5        29.94S
GEORGETOWN     NOT AVBL
WALTERBORO     CLEAR     79  45  29 W6        29.90F
ORANGEBURG     SUNNY     76  49  38 W7        29.90F
6HR MIN TEMP:  51; 6HR MAX TEMP:  76;

BARNWELL       FAIR      79  46  31 W10G18    29.92F
AIKEN          FAIR      77  50  38 W13G20    29.94F
MANNING        FAIR      77  54  44 SW9       29.89F
KINGSTREE      NOT AVBL
COLUMBIA       SUNNY     78  47  33 W14       29.89F
6HR MIN TEMP:  50; 6HR MAX TEMP:  78;

SUMTER         SUNNY     76  49  37 W8        29.87F
6HR MIN TEMP:  52; 6HR MAX TEMP:  76;

FLORENCE       SUNNY     77  49  37 MISG      29.88F
6HR MIN TEMP:  51; 6HR MAX TEMP:  77;

MYRTLE BEACH   SUNNY     79  54  41 W10       29.89F
N MYRTLE BEACH SUNNY     76  53  44 W7        29.87F
6HR MIN TEMP:  59; 6HR MAX TEMP:  77;


$$

GAZ063-065-086>088-099>101-113>116-118-119-134-136>141-150-211900-
...GEORGIA...

CITY           SKY/WX    TMP DP  RH WIND       PRES   REMARKS
SAVANNAH ARPT  SUNNY     80  55  42 NW7       29.93F
6HR MIN TEMP:  61; 6HR MAX TEMP:  81;

HUNTER AAF     SUNNY     77  56  46 W6        29.91F
6HR MIN TEMP:  60; 6HR MAX TEMP:  78;

FORT STEWART   SUNNY     78  53  42 W9        29.92F
6HR MIN TEMP:  59; 6HR MAX TEMP:  78;

STATESBORO     NOT AVBL
SYLVANIA       CLEAR     82  55  39 NW8       29.92F
CLAXTON        FAIR      79  52  38 W8        29.93F
THOMSON        SUNNY     77  57  50 W8        29.97F
AUGUSTA-BUSH   SUNNY     79  43  27 NW14      29.92F
6HR MIN TEMP:  44; 6HR MAX TEMP:  80;

AUGUSTA-DANIEL SUNNY     79  42  26 NW9G17    29.93F
SWAINSBORO     MOCLDY    82  50  32 MISG      29.94F
VIDALIA        SUNNY     77  54  44 W6        29.94F
ALMA           SUNNY     79  51  37 CALM      29.95F
6HR MIN TEMP:  54; 6HR MAX TEMP:  79;

WAYCROSS       SUNNY     82  57  43 NE3       29.94F
JESUP          FAIR      82  54  36 NW5       29.93F
BRUNSWICK      SUNNY     81  54  39 W6        29.93F
SAINT SIMONS   SUNNY     79  57  46 MISG      29.93F
6HR MIN TEMP:  62; 6HR MAX TEMP:  81;


$$

SCZ027-028-034-036>038-045-046-048>050-GAZ119-141-211900-
...LAKE AND SUPPLEMENTAL COASTAL OBSERVATIONS...

STATION/POSITION TIME  TEMP    WIND        PRES    WAVE   SWELL
                       AIR SEA DIR/SP/G            HT/PER HT/PER/DIR
                 (UTC) (F)     (DEG/KT/KT) (MB)    (FT/S) (FT/S/D)
UPR LAKE MARION  NOT AVBL
WINYAH BAY       1800   75     260/  6     1012.0S
LAKE MURRAY      1800   72     270/ 10/ 12 1011.9F
ACE BASIN NERRS  1800   77     300/  4     1013.0F
FORT PULASKI     1800   74     290/  9/ 11 1013.4
SAPELO ISLAND    NOT AVBL

$$

ANZ835-935-AMZ111-154-330-350-352-354-374-450-454-472-211900-
...C-MAN AND BUOY OBSERVATIONS...

STATION/POSITION TIME  TEMP    WIND        PRES    WAVE   SWELL
                       AIR SEA DIR/SP/G            HT/PER HT/PER/DIR
                 (UTC) (F)     (DEG/KT/KT) (MB)    (FT/S) (FT/S/D)
FOLLY BEACH CMAN 1800   76     250/  5/  9 1013.0F
BUOY 41004       1800   73 80  310/  8/ 10 1012.6F   2/ 9   2/ 9
BUOY 41008       1800   73 76  350/  6/  6 1013.9F   2/ 9   2/100/ 9
5E ST. MARYS GA  1800      77                N/A     2/11   2/ 90/11
FRYING PAN BUOY  1800   71 76  280/  6/  6 1013.3F   2/10   2/ 90/10
BUOY 41025       1800   72     240/ 10/ 12 1011.8F   2/ 4   2/110/ 9
CAPE LOOKOUT NC  1800   72     200/  9/ 11 1011.5F
BUOY 41002       1712   75 80  160/  8/ 12 1013.3F   3/ 8   3/110/ 8
BUOY 41010       1800   78 80  310/ 10/ 12 1013.6F   3/ 8   2/ 50/ 8
BUOY 41012       NOT AVBL
ST AUGUSTINE FL  1800   75      20/ 10/ 11 1014.3F
CAPERS NEARSHORE 1700   77      CALM  /  2   N/A
FRIPP NEARSHORE  NOT AVBL


$$



USA.gov is the U.S. government's official web portal to all federal, state and local government web resources and services.